Location: El Manguito
(10.2358°N, 67.3634°W)
Time: 21:36:29
(UTC+00:00)

Aurora 2 Rocket - Pass Details

Date: 08 December 2024
Orbit: 386 x 1590 km, 25.0° (Epoch: 12 January)

Event Time Altitude Azimuth Distance (km) Brightness Sun altitude
Rises 01:28:08 0° 240° (WSW) 4,575 7.7 -46.8°
Reaches altitude 10° 01:31:09 10° 239° (WSW) 3,686 7.0 -47.5°
Enters shadow 01:36:44 40° 232° (SW) 2,199 5.4 -48.8°
